sat.trackr.live / text

‹ back to catalog

STARLINK-1719

NORAD 46331 · 2020-062G

PAYLOAD ACTIVE UNKNOWN

§ Identity

Operator
Country
US
Launch date
2020-09-03
Launch site
AFETR
Launch vehicle
Mass (kg)
RCS (m²)

Purposes: comms

External: N2YO · Heavens-Above · Gunter

§ Orbital elements

Epoch: 2026-07-27T19:02:11.457024Z

Period
87.74 min
Inclination
53.0124°
Eccentricity
0.0010085
Mean motion
16.41195125 rev/d
Perigee alt
156.0 km
Apogee alt
169.2 km
Semi-major
6,540.8 km
B*
5.5693e-4
RAAN
358.5137°
Arg perigee
294.6553°
Mean anomaly
65.3443°
Rev number
32,695

§ Raw data

STARLINK-17191 46331U 20062G   26208.79318816  .09105687  12467-4  55693-3 0  99992 46331  53.0124 358.5137 0010085 294.6553  65.3443 16.41195125326959

JSON: /api/v1/satellites/46331 · /tle

For live sub-satellite position, see the globe view (requires WebGL).

§ Visibility from observer

Set your observer location to see the next 7 days of passes ≥ 10°. The values pass through the URL so the page stays shareable.

No JS? Fill the form by hand. The geolocation button needs JavaScript.